Regional Weather Roundup
Issued by NWS

Home | Current Version | Previous Version | Text Only | Print | Product List | Glossary On
Versions: 1 2 3 4 5 6 7 8 9 10 11 12 13 14 15 16 17 18 19 20 21 22 23 24 25 26 27 28 29 30 31 32 33 34 35 36 37 38 39 40 41 42 43 44 45 46 47 48 49 50
000
ASUS43 KDTX 241810
RWRMI
MICHIGAN HOURLY REGIONAL WEATHER ROUNDUP
NATIONAL WEATHER SERVICE DETROIT/PONTIAC MI
200 PM EDT TUE APR 24 2018

NOTE: "FAIR" INDICATES FEW OR NO CLOUDS BELOW 12,000 FEET WITH NO
SIGNIFICANT WEATHER AND/OR OBSTRUCTION TO VISIBILITY.

MIZ047>049-052>055-059>063-066>070-074>076-081>083-241900-
SOUTHEAST LOWER MICHIGAN

CITY           SKY/WX    TMP DP  RH WIND       PRES   REMARKS
ADRIAN         LGT RAIN  53  51  93 E12       30.04F FOG
6HR MIN TEMP:  51; 6HR MAX TEMP:  54; 6HR PCP: TRACE;

ALMA           CLOUDY    58  51  76 E3        30.06F
6HR MIN TEMP:  53; 6HR MAX TEMP:  58;

ANN ARBOR      CLOUDY    55  50  83 E9        30.04F
BAD AXE        CLOUDY    64  40  40 E10G17    30.08F
6HR MIN TEMP:  55; 6HR MAX TEMP:  65;

CARO           PTSUNNY   64  43  46 E9        30.05F
DETROIT CITY   CLOUDY    57  48  72 VRB7      30.06F
6HR MIN TEMP:  53; 6HR MAX TEMP:  60;

DETROIT        LGT RAIN  54  50  86 SE7       30.07S FOG
6HR MIN TEMP:  53; 6HR MAX TEMP:  58; 6HR PCP: TRACE;

FLINT          CLOUDY    66  45  46 E14       30.03F
6HR MIN TEMP:  54; 6HR MAX TEMP:  68; 6HR PCP: TRACE;

GROSSE ILE     DRIZZLE   52  51  95 SE5       30.05F
6HR MIN TEMP:  51; 6HR MAX TEMP:  54; 6HR PCP:  0.04;

HILLSDALE      CLOUDY    52  46  82 E7        30.02F
HOWELL         CLOUDY    63  48  59 S8        30.03F
6HR MIN TEMP:  53; 6HR MAX TEMP:  63;


CITY           SKY/WX    TMP DP  RH WIND       PRES   REMARKS
JACKSON        CLOUDY    56  49  77 E9        30.03F
6HR MIN TEMP:  53; 6HR MAX TEMP:  57;

LAMBERTVILLE   CLOUDY    53  50  89 E6        30.03F FOG
6HR MIN TEMP:  51; 6HR MAX TEMP:  54;

LANSING        CLOUDY    60  49  66 CALM      30.04F
6HR MIN TEMP:  53; 6HR MAX TEMP:  61; 6HR PCP: TRACE;

LAPEER         CLOUDY    65  46  49 SE7       30.05F
6HR MIN TEMP:  52; 6HR MAX TEMP:  66;

MASON          CLOUDY    59  47  62 S3        30.03F
6HR MIN TEMP:  54; 6HR MAX TEMP:  61;

MONROE         LGT RAIN  52  50  93 E8        30.04F
6HR MIN TEMP:  50; 6HR MAX TEMP:  52; 6HR PCP:  0.07;

MT. CLEMENS    CLOUDY    58  49  70 SE12      30.06F
6HR MIN TEMP:  50; 6HR MAX TEMP:  61;

PONTIAC        CLOUDY    63  47  55 SE13      30.03F
6HR MIN TEMP:  54; 6HR MAX TEMP:  63;

PORT HOPE        N/A     51  45  79 SE14      30.08F
6HR MIN TEMP:  46; 6HR MAX TEMP:  56;

PORT HURON     FAIR      63  43  48 SE10G18   30.07F
TRI CITIES     CLOUDY    61  47  59 E6        30.07F
6HR MIN TEMP:  53; 6HR MAX TEMP:  61; 6HR PCP: TRACE;

MIDLAND        CLOUDY    57  50  75 CALM      30.06F
6HR MIN TEMP:  48; 6HR MAX TEMP:  58;

TROY           CLOUDY    61  46  58 E7        30.07F
SAGINAW HB     CLOUDY    63  45  51 NE3       30.05F
$$
MIZ043>046-050>051-056>058-064>065-071>073-077>080-241900-
SOUTHWEST LOWER MICHIGAN

CITY           SKY/WX    TMP DP  RH WIND       PRES   REMARKS
BATTLE CREEK   CLOUDY    57  49  74 E8        30.03F
6HR MIN TEMP:  52; 6HR MAX TEMP:  57;

BENTON HARBOR  CLOUDY    60  47  61 VRB7      30.01F
6HR MIN TEMP:  53; 6HR MAX TEMP:  64;

BIG RAPIDS     CLOUDY    56  45  64 E3        30.06F
6HR MIN TEMP:  48; 6HR MAX TEMP:  57;

COLDWATER      CLOUDY    55  50  83 SE7       30.02F
6HR MIN TEMP:  53; 6HR MAX TEMP:  56;

FREMONT        CLOUDY    58  42  55 E5        30.05F
HOLLAND        CLOUDY    63  49  60 NE6       30.03F
6HR MIN TEMP:  53; 6HR MAX TEMP:  64; 6HR PCP: TRACE;

GRAND RAPIDS   CLOUDY    60  49  66 E3        30.04F
6HR MIN TEMP:  53; 6HR MAX TEMP:  60; 6HR PCP:  0.01;

IONIA          CLOUDY    60  48  64 SE6       30.03F
6HR MIN TEMP:  53; 6HR MAX TEMP:  60;

KALAMAZOO      CLOUDY    59  48  67 VRB5      30.03F
6HR MIN TEMP:  53; 6HR MAX TEMP:  59;

LUDINGTON      CLOUDY    59  49  68 W6        30.05F
6HR MIN TEMP:  46; 6HR MAX TEMP:  60;

MARSHALL       CLOUDY    56  49  77 E9        30.03F
6HR MIN TEMP:  51; 6HR MAX TEMP:  57;

MOUNT PLEASANT PTSUNNY   57  51  78 CALM      30.06F
6HR MIN TEMP:  51; 6HR MAX TEMP:  58;

MUSKEGON       CLOUDY    61  49  64 E7        30.04F
6HR MIN TEMP:  55; 6HR MAX TEMP:  62; 6HR PCP: TRACE;

SOUTH HAVEN    CLOUDY    60  48  64 NW8       30.02S
$$
MIZ016>042-241900-
NORTHERN LOWER MICHIGAN

CITY           SKY/WX    TMP DP  RH WIND       PRES   REMARKS
ALPENA         CLOUDY    56  46  69 S10       30.07F
6HR MIN TEMP:  37; 6HR MAX TEMP:  59;

BEAVER ISLAND  FAIR      58  32  37 NW3       30.07S
6HR MIN TEMP:  33; 6HR MAX TEMP:  62;

BELLAIRE       FAIR      64  45  51 CALM      30.05F
6HR MIN TEMP:  37; 6HR MAX TEMP:  64;

CADILLAC       PTSUNNY   57  46  68 SE8       30.06F
CHARLEVOIX     FAIR      55  41  60 NW7       30.08F
6HR MIN TEMP:  39; 6HR MAX TEMP:  60;

FRANKFORT      FAIR      61  49  65 W7        30.06F
GAYLORD        CLOUDY    52  45  77 S7        30.06F
6HR MIN TEMP:  42; 6HR MAX TEMP:  54; 6HR PCP: TRACE;

GRAYLING       FAIR      58  47  68 S8        30.07
6HR MIN TEMP:  40; 6HR MAX TEMP:  58;

HARBOR SPRINGS FAIR      62  46  55 W6        30.05F
HOUGHTON LAKE  CLOUDY    56  47  71 W3        30.07F
6HR MIN TEMP:  45; 6HR MAX TEMP:  56; 6HR PCP:  0.01;

MANISTEE       FAIR      62  48  60 NW9       30.05F
OSCODA         CLOUDY    57  42  57 CALM      30.07F
6HR MIN TEMP:  43; 6HR MAX TEMP:  60;

PELLSTON       FAIR      63  44  50 S7        30.05F
6HR MIN TEMP:  37; 6HR MAX TEMP:  64;

ROGERS CITY    FAIR      50  38  62 NE3       30.07F
TRAVERSE CITY  PTSUNNY   57  43  59 NE3       30.04F
6HR MIN TEMP:  42; 6HR MAX TEMP:  62;

$$
MIZ007>008-015-241900-
EASTERN UPPER MICHIGAN

CITY           SKY/WX    TMP DP  RH WIND       PRES   REMARKS
KINROSS        FAIR      59  32  36 SE8       30.05F
6HR MIN TEMP:  35; 6HR MAX TEMP:  59;

MACKINAC ISLAN FAIR      58  33  39 CALM      30.05F
6HR MIN TEMP:  39; 6HR MAX TEMP:  58;

NEWBERRY       PTSUNNY   59  24  26 N16       30.05F
6HR MIN TEMP:  35; 6HR MAX TEMP:  63;

S. S. MARIE    FAIR      59  31  34 S6        30.05F
6HR MIN TEMP:  41; 6HR MAX TEMP:  59;

MUNISING         N/A     40  33  76 NW18      30.12F WCI  31
6HR MIN TEMP:  36; 6HR MAX TEMP:  44;

$$
MIZ004>006-011>014-085-241900-
CENTRAL UPPER MICHIGAN

CITY           SKY/WX    TMP DP  RH WIND       PRES   REMARKS
MANISTIQUE     PTSUNNY   60  31  33 NW12      30.07S
6HR MIN TEMP:  37; 6HR MAX TEMP:  61;

ESCANABA       FAIR      59  33  37 N12G18    30.08S
6HR MIN TEMP:  32; 6HR MAX TEMP:  62;

MENOMINEE      FAIR      61  27  27 SE8       30.07F
6HR MIN TEMP:  31; 6HR MAX TEMP:  61;

SAWYER-GWINN   MOSUNNY   45  30  57 NE14      30.13F
$$
MIZ001>003-009>011-084-241900-
WESTERN UPPER MICHIGAN

CITY           SKY/WX    TMP DP  RH WIND       PRES   REMARKS
IRON MOUNTAIN  FAIR      66  34  30 N13       30.05F
6HR MIN TEMP:  36; 6HR MAX TEMP:  67;

HOUGHTON       FAIR      46  25  43 N8        30.15F
6HR MIN TEMP:  43; 6HR MAX TEMP:  49;

COPPER HARBOR    N/A     40  29  64 N13       30.16F WCI  32
6HR MIN TEMP:  39; 6HR MAX TEMP:  43;

IRONWOOD       FAIR      46  29  51 N13       30.18S
6HR MIN TEMP:  32; 6HR MAX TEMP:  51;

$$

ABBREVIATIONS USED IN REMARKS
   TC - TEMPERATURE IN CELSIUS
  WCI - WIND CHILL INDEX
   HX - HEAT INDEX
  VSB - VISIBILITY





USA.gov is the U.S. government's official web portal to all federal, state and local government web resources and services.